Weather History for KSKX - August, 2014

Change the Weather History Date:

Sunday, August 10, 2014

  Actual Average Record
Temperature  
Mean Temperature 66 °F -  
Max Temperature 82 °F - - ()
Min Temperature 51 °F - - ()
Cooling Degree Days 2    
Growing Degree Days 16 (Base 50)    
Moisture  
Dew Point 41 °F    
Average Humidity 46    
Maximum Humidity 67    
Minimum Humidity 20    
Precipitation  
Precipitation 0.19 in - - ()
Sea Level Pressure  
Sea Level Pressure 30.40 in    
Wind  
Wind Speed 6 mph (ENE)    
Max Wind Speed 29 mph    
Max Gust Speed 38 mph    
T = Trace of Precipitation, MM = Missing Value Source: NWS Daily Summary

Daily Weather History Graph

Daily Weather History Graph

Search for Another Location

Airport or City:

Trip Planner

Search our weather history database for the weather conditions in past years. The results will help you decide how hot, cold, wet, or windy it might be!

Date:

Astronomy

Aug. 10, 2014 Rise Set
Actual Time 6:16 AM MDT 7:59 PM MDT
Civil Twilight 5:48 AM MDT 8:26 PM MDT
Nautical Twilight 5:15 AM MDT 9:00 PM MDT
Astronomical Twilight 4:39 AM MDT 9:35 PM MDT
Moon 7:50 PM MDT (8/10) 6:10 AM MDT (8/10)
Length of Visible Light 14h 38m
Length of Day
13h 42m
Full, 100% of the Moon is Illuminated
Aug 10
Full
Aug 10
Full
Aug 17
Last Quarter
Aug 25
New
Sep 2
First Quarter

Hourly Weather History & Observations

Time (MDT) Temp. Dew Point Humidity Pressure Visibility Wind Dir Wind Speed Gust Speed Precip Events Conditions
12:15 AM 66.2 °F 37.4 °F 35% 30.36 in - Calm Calm - N/A   Clear
12:35 AM 64.4 °F 39.2 °F 40% 30.36 in - Calm Calm - N/A   Clear
12:55 AM 64.4 °F 39.2 °F 40% 30.36 in - WSW 3.5 mph - N/A   Clear
1:15 AM 64.4 °F 39.2 °F 40% 30.36 in - NNE 3.5 mph - N/A   Clear
1:35 AM 62.6 °F 37.4 °F 39% 30.36 in - Calm Calm - N/A   Clear
1:55 AM 60.8 °F 37.4 °F 42% 30.36 in - NE 3.5 mph - N/A   Clear
2:15 AM 60.8 °F 39.2 °F 45% 30.36 in - North 5.8 mph - N/A   Clear
2:35 AM 59.0 °F 39.2 °F 48% 30.36 in - North 3.5 mph - N/A   Clear
3:15 AM 57.2 °F 39.2 °F 51% 30.36 in - Calm Calm - N/A   Clear
3:35 AM 53.6 °F 37.4 °F 54% 30.36 in - Calm Calm - N/A   Clear
3:55 AM 55.4 °F 39.2 °F 54% 30.36 in - Calm Calm - N/A   Clear
4:15 AM 51.8 °F 37.4 °F 58% 30.36 in - NNW 5.8 mph - N/A   Clear
4:35 AM 53.6 °F 39.2 °F 58% 30.36 in - North 4.6 mph - N/A   Clear
4:55 AM 53.6 °F 39.2 °F 58% 30.36 in - Calm Calm - N/A   Clear
5:15 AM 51.8 °F 37.4 °F 58% 30.36 in - North 5.8 mph - N/A   Clear
5:35 AM 51.8 °F 37.4 °F 58% 30.37 in - North 5.8 mph - N/A   Clear
5:55 AM 51.8 °F 37.4 °F 58% 30.38 in - NNW 4.6 mph - N/A   Clear
6:15 AM 51.8 °F 39.2 °F 62% 30.39 in - NNW 6.9 mph - N/A   Clear
6:35 AM 51.8 °F 39.2 °F 62% 30.39 in - North 5.8 mph - N/A   Clear
6:55 AM 51.8 °F 39.2 °F 62% 30.39 in - North 4.6 mph - N/A   Clear
7:15 AM 55.4 °F 39.2 °F 54% 30.40 in - North 4.6 mph - N/A   Clear
7:35 AM 57.2 °F 39.2 °F 51% 30.40 in - North 4.6 mph - N/A   Clear
7:55 AM 60.8 °F 41.0 °F 48% 30.41 in - North 5.8 mph - N/A   Clear
8:15 AM 62.6 °F 41.0 °F 45% 30.41 in - North 5.8 mph - N/A   Clear
8:35 AM 64.4 °F 41.0 °F 42% 30.42 in - North 6.9 mph - N/A   Clear
8:55 AM 64.4 °F 41.0 °F 42% 30.42 in - North 6.9 mph - N/A   Clear
9:15 AM 66.2 °F 41.0 °F 40% 30.42 in - North 5.8 mph - N/A   Clear
9:35 AM 69.8 °F 41.0 °F 35% 30.42 in - North 8.1 mph - N/A   Clear
9:55 AM 71.6 °F 41.0 °F 33% 30.42 in - North 6.9 mph - N/A   Clear
10:15 AM 71.6 °F 41.0 °F 33% 30.42 in - North 6.9 mph - N/A   Clear
10:35 AM 73.4 °F 39.2 °F 29% 30.42 in - Calm Calm - N/A   Clear
10:55 AM 73.4 °F 41.0 °F 31% 30.42 in - NE 4.6 mph - N/A   Clear
11:15 AM 75.2 °F 39.2 °F 27% 30.42 in - North 8.1 mph - N/A   Clear
11:35 AM 77.0 °F 41.0 °F 28% 30.42 in - Calm Calm - N/A   Clear
11:55 AM 77.0 °F 39.2 °F 26% 30.41 in - North 4.6 mph - N/A   Clear
12:15 PM 77.0 °F 39.2 °F 26% 30.40 in - NW 8.1 mph - N/A   Clear
12:35 PM 78.8 °F 39.2 °F 24% 30.39 in - WSW 8.1 mph - N/A   Clear
12:55 PM 80.6 °F 39.2 °F 23% 30.38 in - North 6.9 mph - N/A   Clear
1:15 PM 80.6 °F 37.4 °F 21% 30.38 in - West 6.9 mph - N/A   Clear
1:35 PM 82.4 °F 39.2 °F 21% 30.37 in - West 6.9 mph - N/A   Clear
1:55 PM 82.4 °F 37.4 °F 20% 30.37 in - NE 4.6 mph - N/A   Clear
2:15 PM 82.4 °F 39.2 °F 21% 30.38 in - ESE 19.6 mph - N/A   Partly Cloudy
2:35 PM 78.8 °F 39.2 °F 24% 30.38 in - ESE 26.5 mph 32.2 mph N/A   Mostly Cloudy
2:55 PM 77.0 °F 39.2 °F 26% 30.38 in - ESE 28.8 mph 38.0 mph N/A   Mostly Cloudy
3:15 PM 71.6 °F 39.2 °F 31% 30.39 in - ESE 24.2 mph 34.5 mph N/A Thunderstorm Thunderstorm
3:35 PM 66.2 °F 42.8 °F 43% 30.40 in - ESE 18.4 mph 34.5 mph N/A Thunderstorm Thunderstorm
3:55 PM 62.6 °F 44.6 °F 52% 30.43 in - ENE 17.3 mph 26.5 mph 0.11 in Thunderstorm Thunderstorm
4:35 PM 59.0 °F 48.2 °F 67% 30.42 in - ESE 21.9 mph 26.5 mph 0.08 in Thunderstorm Thunderstorm
4:55 PM 62.6 °F 46.4 °F 55% 30.41 in - ESE 18.4 mph 27.6 mph 0.08 in Thunderstorm Thunderstorm
5:15 PM 62.6 °F 44.6 °F 52% 30.41 in - ESE 19.6 mph 25.3 mph N/A   Mostly Cloudy
5:35 PM 66.2 °F 46.4 °F 49% 30.41 in - SE 19.6 mph 26.5 mph N/A   Mostly Cloudy
5:55 PM 64.4 °F 46.4 °F 52% 30.41 in - SSE 13.8 mph - N/A   Scattered Clouds
6:15 PM 62.6 °F 46.4 °F 55% 30.40 in - SE 11.5 mph - N/A   Partly Cloudy
6:35 PM 60.8 °F 46.4 °F 59% 30.39 in - South 11.5 mph - N/A   Clear
6:55 PM 62.6 °F 48.2 °F 59% 30.38 in - South 13.8 mph - N/A   Clear
7:15 PM 62.6 °F 46.4 °F 55% 30.39 in - SSE 9.2 mph - N/A   Clear
7:35 PM 62.6 °F 46.4 °F 55% 30.39 in - SE 3.5 mph - N/A   Clear
7:55 PM 60.8 °F 48.2 °F 63% 30.39 in - East 5.8 mph - N/A   Clear
8:15 PM 59.0 °F 46.4 °F 63% 30.40 in - ESE 10.4 mph - N/A   Clear
8:35 PM 60.8 °F 46.4 °F 59% 30.41 in - East 11.5 mph - N/A   Clear
8:55 PM 60.8 °F 42.8 °F 52% 30.43 in - East 11.5 mph - N/A   Clear
9:15 PM 59.0 °F 44.6 °F 59% 30.44 in - ESE 12.7 mph - N/A   Clear
9:35 PM 60.8 °F 42.8 °F 52% 30.45 in - SE 21.9 mph 26.5 mph N/A   Partly Cloudy
9:55 PM 60.8 °F 44.6 °F 55% 30.47 in - ESE 16.1 mph 23.0 mph N/A   Mostly Cloudy
10:15 PM 60.8 °F 42.8 °F 52% 30.47 in - SE 13.8 mph - N/A   Partly Cloudy
10:35 PM 59.0 °F 42.8 °F 55% 30.48 in - ESE 17.3 mph - N/A   Clear
10:55 PM 59.0 °F 42.8 °F 55% 30.49 in - SE 18.4 mph 23.0 mph N/A   Clear
11:15 PM 57.2 °F 44.6 °F 63% 30.50 in - SE 15.0 mph 19.6 mph N/A   Clear
11:35 PM 57.2 °F 44.6 °F 63% 30.51 in - SE 15.0 mph - N/A   Clear
11:55 PM 57.2 °F 44.6 °F 63% 30.50 in - SE 13.8 mph - N/A   Clear